TimeMDT,TemperatureF,Dew PointF,Humidity,Sea Level PressureIn,VisibilityMPH,Wind Direction,Wind SpeedMPH,Gust SpeedMPH,PrecipitationIn,Events,Conditions,WindDirDegrees,DateUTC
12:14 AM,26.6,24.8,93,30.08,4.0,WNW,8.1,-,0.01,Snow,Light Snow,300,2013-03-23 06:14:00
12:34 AM,26.6,24.8,93,30.07,2.0,NW,15.0,19.6,0.01,Snow,Light Snow,310,2013-03-23 06:34:00
12:41 AM,26.6,23.0,86,30.07,1.8,NW,16.1,-,0.01,Snow,Light Snow,320,2013-03-23 06:41:00
12:55 AM,25.0,21.9,88,30.13,1.8,NW,17.3,-,0.02,Snow,Light Snow,310,2013-03-23 06:55:00
12:58 AM,24.8,21.2,86,30.06,2.0,NW,17.3,-,0.00,Snow,Light Snow,320,2013-03-23 06:58:00
1:15 AM,24.8,19.4,80,30.06,4.0,NNW,21.9,-,0.00,Snow,Light Snow,340,2013-03-23 07:15:00
1:55 AM,21.9,15.1,75,30.15,9.0,NNW,21.9,28.8,0.00,,Overcast,340,2013-03-23 07:55:00
2:26 AM,21.2,15.8,80,30.10,10.0,NNW,17.3,-,0.00,,Overcast,330,2013-03-23 08:26:00
2:45 AM,21.2,12.2,68,30.11,10.0,NNW,23.0,28.8,0.00,,Overcast,330,2013-03-23 08:45:00
2:55 AM,21.9,12.9,68,30.17,10.0,NNW,21.9,27.6,0.00,,Overcast,330,2013-03-23 08:55:00
3:55 AM,21.0,12.9,71,30.17,10.0,NNW,18.4,26.5,N/A,,Overcast,340,2013-03-23 09:55:00
4:10 AM,21.2,12.2,68,30.11,10.0,NW,18.4,-,N/A,,Overcast,320,2013-03-23 10:10:00
4:55 AM,19.9,12.9,74,30.20,10.0,NW,11.5,-,N/A,,Overcast,320,2013-03-23 10:55:00
5:55 AM,18.0,12.0,78,30.23,10.0,NW,11.5,-,N/A,,Overcast,320,2013-03-23 11:55:00
6:55 AM,14.0,10.0,84,30.26,10.0,WNW,8.1,-,N/A,,Clear,300,2013-03-23 12:55:00
7:55 AM,16.0,10.9,81,30.27,10.0,WNW,5.8,-,N/A,,Clear,300,2013-03-23 13:55:00
8:55 AM,19.9,12.9,74,30.27,10.0,NW,12.7,-,N/A,,Clear,310,2013-03-23 14:55:00
9:55 AM,24.1,12.9,62,30.27,10.0,NNW,16.1,25.3,N/A,,Clear,340,2013-03-23 15:55:00
10:55 AM,26.1,16.0,66,30.27,10.0,NNW,18.4,-,N/A,,Mostly Cloudy,330,2013-03-23 16:55:00
11:55 AM,27.0,16.0,63,30.26,10.0,NNW,18.4,26.5,N/A,,Overcast,340,2013-03-23 17:55:00
12:27 PM,26.6,15.8,64,30.18,10.0,NNW,23.0,28.8,N/A,,Overcast,330,2013-03-23 18:27:00
12:55 PM,28.0,17.1,63,30.25,10.0,NNW,21.9,28.8,N/A,,Overcast,330,2013-03-23 18:55:00
1:55 PM,28.9,17.1,61,30.24,10.0,NNW,21.9,28.8,N/A,,Overcast,330,2013-03-23 19:55:00
2:55 PM,30.9,16.0,54,30.24,10.0,NNW,21.9,28.8,N/A,,Overcast,340,2013-03-23 20:55:00
3:55 PM,30.9,14.0,50,30.25,10.0,NNW,18.4,27.6,N/A,,Overcast,340,2013-03-23 21:55:00
4:55 PM,30.0,14.0,51,30.26,10.0,NNW,16.1,24.2,N/A,,Overcast,340,2013-03-23 22:55:00
5:55 PM,28.9,14.0,54,30.27,10.0,North,12.7,-,N/A,,Overcast,350,2013-03-23 23:55:00
6:55 PM,27.0,14.0,58,30.30,10.0,NNW,17.3,-,N/A,,Overcast,340,2013-03-24 00:55:00
7:55 PM,26.1,14.0,60,30.30,10.0,NNW,19.6,24.2,N/A,,Overcast,340,2013-03-24 01:55:00
8:55 PM,23.0,12.9,65,30.32,10.0,North,15.0,-,N/A,,Overcast,350,2013-03-24 02:55:00
9:55 PM,19.0,12.0,74,30.33,10.0,North,8.1,-,N/A,,Clear,350,2013-03-24 03:55:00
10:55 PM,17.1,10.9,77,30.32,10.0,WNW,5.8,-,N/A,,Clear,300,2013-03-24 04:55:00
11:55 PM,14.0,10.0,84,30.32,10.0,West,6.9,-,N/A,,Clear,260,2013-03-24 05:55:00